Вернуться в каталог

STARLINK-33626

АктивенСвязьVLEO
NORAD 63369·PAYLOAD·🇺🇸 United States

Запущен Mar 26, 2025 с Vandenberg Space Force Base

Loading…

Ближайшие Пролёты (ближайшие 24 часа)

TLE

СвежийSource: CelesTrak SupGP

Эпоха: Sep 14, 2026, 22:53 UTC

1 63369C 25063G   26257.95395833  .00031161  00000+0  92056-3 0  2573
2 63369  53.1575 247.5663 0001262  92.4486  70.7231 15.34377830    14

Отслеживайте STARLINK-33626 в реальном времени с AllMySat

Download on the App Store